Skip Page Navigation
NASA JPL Caltech
NASA Logo - Jet Propulsion Laboratory + View the NASA Portal
+ Center for Near-Earth Object Studies
JPL Home Earth Solar System Stars & Galaxies Technology
JPL Solar System Dynamics
BODIES ORBITS EPHEMERIDES TOOLS PHYSICAL DATA DISCOVERY FAQ SITE MAP
IMPORTANT: The SSD Announcement email list is now available. Major changes are coming in the near future, including possible hostname and/or URL changes. To be notified of such changes, subscribe to this email list.

Please visit this page for more details.


JPL Small-Body Database Browser
Search: [ help ]  
6085 Fraethi (1987 SN3)
Classification: Main-belt Asteroid          SPK-ID: 2006085
Ephemeris | Orbit Diagram | Orbital Elements | Mission Design | Physical Parameters | Discovery Circumstances ]

[ show orbit diagram ]
Orbital Elements at Epoch 2458600.5 (2019-Apr-27.0) TDB
Reference: JPL 34 (heliocentric ecliptic J2000)
 Element Value Uncertainty (1-sigma)   Units 
e .1375080466999916 3.6472e-08  
a 2.306987795674995 7.06e-09 au
q 1.989758410131007 8.492e-08 au
i 6.644643619195148 3.8789e-06 deg
node 201.5426613596658 3.175e-05 deg
peri 145.5951350100521 3.4421e-05 deg
M 6.894738511162915 1.3265e-05 deg
tp 2458575.987834991557
(2019-Apr-02.48783499)
4.7128e-05 TDB
period 1279.87151198736
3.50
5.8751e-06
1.609e-08
d
yr
n .2812782350636112 1.2912e-09 deg/d
Q 2.624217181218983 8.0308e-09 au
  Orbit Determination Parameters
   # obs. used (total)      1814  
   data-arc span      11781 days (32.25 yr)  
   first obs. used      1987-08-27  
   last obs. used      2019-11-28  
   planetary ephem.      DE431  
   SB-pert. ephem.      SB431-N16  
   condition code      0  
   norm. resid. RMS      .4965  
   source      ORB  
   producer      Otto Matic  
   solution date      2019-Dec-03 21:27:21  

Additional Information
 Earth MOID = .986751 au 
 Jupiter MOID = 2.79962 au 
 T_jup = 3.566 
[ show covariance matrix ]

Ephemeris | Orbit Diagram | Orbital Elements | Mission Design | Physical Parameters | Discovery Circumstances ]

Physical Parameter Table
Parameter Symbol Value Units Sigma Reference Notes
absolute magnitude H 14.0   n/a MPO435757  
diameter diameter 5.004 km 0.297 urn:nasa:pds:neowise_diameters_albedos::2.0[mainbelt] (http://adsabs.harvard.edu/abs/2011ApJ...741...68M)  
rotation period rot_per 5.556 h n/a LCDB (Rev. 2019-January); Warner et al., 2009 Published Reference List:
[Stephens, R.D. (2016) Minor Planet Bull. 43, 52-56.]
geometric albedo albedo 0.213   0.043 urn:nasa:pds:neowise_diameters_albedos::2.0[mainbelt] (http://adsabs.harvard.edu/abs/2011ApJ...741...68M)  

6085 Fraethi           Discovered 1987 Sept. 25 by P. Jensen at Brorfelde.
Frede Pedersen is father of one of the astronomers at the Astronomical Observatory in Copenhagen. Originating from the old Nordic name "Fraethi", Frede is an old Danish name meaning "peace".
NOTE: some special characters may not display properly (any characters within {} are an attempt to place the proper accent above a character)
Reference: 20050407/MPCPages.arcLast Updated: 2005-04-15

Alternate Designations
 1987 SN3 = 1989 CG3 
Ephemeris | Orbit Diagram | Orbital Elements | Mission Design | Physical Parameters | Discovery Circumstances ]
ABOUT SSD CREDITS/AWARDS PRIVACY/COPYRIGHT GLOSSARY LINKS
FirstGov 2019-Dec-13 11:20 UT
(server date/time)  
NASA Home Page
Site Manager:   Ryan S. Park
Webmaster  Alan B. Chamberlin